User: anonymous   Login
Location: Dover
(39.1580°N, 75.5250°W)
Time: 17:26:19
(UTC-04:00)
Language:

SeaSat 1 - Orbit

View from above orbital plane
View from above orbital plane
View from above satellite
View from above satellite

Ground track
Ground track

The orbit data is extracted from the following two-line orbital elements,

1 10967U 78064A   15238.86249385  .00000014  00000-0  44619-4 0  9995
2 10967 107.9954 000.2115 0002630 276.7583 083.3261 14.43427563951319
Epoch (UTC): 26 August 2015 20:41:59
Eccentricity: 0.0002630
inclination: 107.9954°
perigee height: 745 km
apogee height: 749 km
right ascension of ascending node: 0.2115°
argument of perigee: 276.7583°
revolutions per day: 14.43427563
mean anomaly at epoch: 83.3261°
orbit number at epoch: 95131

The dashed part of the orbit path shows where the satellite is in the earth's shadow,  

DLR